• In Czech Republic
  • List of Countries
  • For 7 days
  • Water Temperature
  • Satellite Maps
  • Weather Map
  • Weather Widgets
  • user-avatar
    Login

    Hourly Weather Elbasan

    Today, 22 September, Saturday

    Time Temperature Precipitation Wind Pressure Humidity
    00:00 +21°C° 0 mm 1 mps 737 mmHg 75%
    01:00 +21°C° 0 mm 1 mps 736 mmHg 74%
    02:00 +20°C° 0 mm 1 mps 736 mmHg 73%
    03:00 +20°C° 0 mm 1 mps 736 mmHg 72%
    04:00 +20°C° 0 mm 1 mps 736 mmHg 71%
    05:00 +21°C° 0 mm 1 mps 736 mmHg 67%
    06:00 +22°C° 0 mm 1 mps 737 mmHg 62%
    07:00 +24°C° 0 mm 1 mps 737 mmHg 56%
    08:00 +26°C° 0 mm 1 mps 737 mmHg 51%
    09:00 +27°C° 0 mm 1 mps 737 mmHg 47%
    10:00 +29°C° 0 mm 1 mps 737 mmHg 42%
    11:00 +30°C° 0 mm 2 mps 737 mmHg 40%
    12:00 +30°C° 0 mm 2 mps 737 mmHg 38%
    13:00 +31°C° 0 mm 3 mps 737 mmHg 36%
    14:00 +30°C° 0 mm 3 mps 737 mmHg 39%
    15:00 +30°C° 0 mm 3 mps 737 mmHg 42%
    16:00 +29°C° 0 mm 3 mps 736 mmHg 46%
    17:00 +27°C° 0 mm 2 mps 737 mmHg 55%
    18:00 +25°C° 0 mm 2 mps 737 mmHg 65%
    19:00 +23°C° 0 mm 1 mps 737 mmHg 75%
    20:00 +22°C° 0 mm 1 mps 737 mmHg 75%
    21:00 +22°C° 0 mm 1 mps 738 mmHg 76%
    22:00 +22°C° 0 mm 1 mps 738 mmHg 76%
    23:00 +21°C° 0 mm 1 mps 738 mmHg 75%

    Tomorrow, 23 September, Sunday

    Time Temperature Precipitation Wind Pressure Humidity
    00:00 +21°C° 0 mm 1 mps 738 mmHg 74%
    01:00 +21°C° 0 mm 1 mps 738 mmHg 74%
    02:00 +21°C° 0 mm 1 mps 738 mmHg 73%
    03:00 +21°C° 0 mm 1 mps 738 mmHg 73%
    04:00 +20°C° 0 mm 1 mps 738 mmHg 72%
    05:00 +21°C° 0 mm 1 mps 738 mmHg 68%
    06:00 +23°C° 0 mm 1 mps 738 mmHg 63%
    07:00 +24°C° 0 mm 1 mps 739 mmHg 59%
    08:00 +26°C° 0 mm 1 mps 739 mmHg 52%
    09:00 +28°C° 0 mm 1 mps 739 mmHg 44%
    10:00 +31°C° 0 mm 1 mps 739 mmHg 37%
    11:00 +31°C° 0 mm 2 mps 739 mmHg 35%
    12:00 +32°C° 0 mm 2 mps 739 mmHg 33%
    13:00 +34°C° 0 mm 3 mps 739 mmHg 32%
    14:00 +32°C° 0 mm 2 mps 738 mmHg 34%
    15:00 +31°C° 0 mm 2 mps 738 mmHg 37%
    16:00 +31°C° 0 mm 2 mps 738 mmHg 39%
    17:00 +28°C° 0 mm 2 mps 738 mmHg 47%
    18:00 +26°C° 0 mm 1 mps 738 mmHg 54%
    19:00 +21°C° 0 mm 0 mps 738 mmHg 62%
    20:00 +23°C° 0 mm 1 mps 738 mmHg 63%
    21:00 +23°C° 0 mm 1 mps 738 mmHg 64%
    22:00 +22°C° 0 mm 1 mps 738 mmHg 65%
    23:00 +22°C° 0 mm 1 mps 738 mmHg 66%

    Day after tomorrow, 24 September, Monday

    Time Temperature Precipitation Wind Pressure Humidity
    00:00 +22°C° 0 mm 1 mps 737 mmHg 67%
    01:00 +21°C° 0 mm 1 mps 737 mmHg 68%
    02:00 +21°C° 0 mm 1 mps 737 mmHg 67%
    03:00 +21°C° 0 mm 1 mps 736 mmHg 67%
    04:00 +20°C° 0 mm 1 mps 736 mmHg 66%
    05:00 +21°C° 0 mm 1 mps 736 mmHg 61%
    06:00 +23°C° 0 mm 1 mps 736 mmHg 56%
    07:00 +24°C° 0 mm 2 mps 736 mmHg 52%
    08:00 +26°C° 0 mm 2 mps 736 mmHg 46%
    09:00 +27°C° 0 mm 2 mps 736 mmHg 40%
    10:00 +29°C° 0 mm 2 mps 736 mmHg 35%
    11:00 +30°C° 0 mm 2 mps 736 mmHg 33%
    12:00 +31°C° 0 mm 3 mps 735 mmHg 32%
    13:00 +31°C° 0 mm 3 mps 735 mmHg 31%
    14:00 +31°C° 0 mm 3 mps 735 mmHg 34%
    15:00 +30°C° 0 mm 3 mps 735 mmHg 38%
    16:00 +29°C° 0 mm 3 mps 734 mmHg 42%
    17:00 +27°C° 0 mm 2 mps 735 mmHg 51%
    18:00 +25°C° 0 mm 2 mps 735 mmHg 61%
    19:00 +21°C° 0 mm 2 mps 736 mmHg 70%
    20:00 +21°C° 0 mm 2 mps 736 mmHg 70%
    21:00 +20°C° 0 mm 2 mps 737 mmHg 71%
    22:00 +19°C° 0 mm 2 mps 737 mmHg 71%
    23:00 +19°C° 0 mm 3 mps 738 mmHg 69%

    25 September, Tuesday

    Time Temperature Precipitation Wind Pressure Humidity
    00:00 +18°C° 0 mm 3 mps 738 mmHg 68%
    01:00 +17°C° 0 mm 3 mps 738 mmHg 66%
    02:00 +17°C° 0 mm 3 mps 738 mmHg 65%
    03:00 +16°C° 0 mm 3 mps 738 mmHg 63%
    04:00 +14°C° 0 mm 4 mps 738 mmHg 61%
    05:00 +15°C° 0 mm 4 mps 738 mmHg 58%
    06:00 +15°C° 0 mm 4 mps 739 mmHg 55%
    07:00 +15°C° 0 mm 4 mps 739 mmHg 52%
    08:00 +18°C° 0 mm 4 mps 739 mmHg 48%
    09:00 +19°C° 0 mm 4 mps 740 mmHg 44%
    10:00 +21°C° 0 mm 5 mps 740 mmHg 40%
    11:00 +22°C° 0 mm 5 mps 740 mmHg 39%
    12:00 +22°C° 0 mm 5 mps 740 mmHg 37%
    13:00 +23°C° 0 mm 5 mps 740 mmHg 35%
    14:00 +23°C° 0 mm 5 mps 740 mmHg 35%
    15:00 +22°C° 0 mm 5 mps 740 mmHg 35%
    16:00 +22°C° 0 mm 5 mps 740 mmHg 34%
    17:00 +20°C° 0 mm 5 mps 740 mmHg 36%
    18:00 +17°C° 0 mm 5 mps 741 mmHg 38%
    19:00 +15°C° 0 mm 5 mps 741 mmHg 40%
    20:00 +14°C° 0 mm 5 mps 742 mmHg 41%
    21:00 +13°C° 0 mm 5 mps 742 mmHg 43%
    22:00 +12°C° 0 mm 5 mps 743 mmHg 45%
    23:00 +10°C° 0 mm 5 mps 743 mmHg 45%

    26 September, Wednesday

    Time Temperature Precipitation Wind Pressure Humidity
    00:00 +10°C° 0 mm 5 mps 743 mmHg 46%
    01:00 +9°C° 0 mm 5 mps 744 mmHg 46%
    02:00 +8°C° 0 mm 4 mps 744 mmHg 47%
    03:00 +8°C° 0 mm 4 mps 744 mmHg 48%
    04:00 +7°C° 0 mm 4 mps 744 mmHg 49%
    05:00 +8°C° 0 mm 4 mps 744 mmHg 47%
    06:00 +9°C° 0 mm 5 mps 745 mmHg 45%
    07:00 +10°C° 0 mm 5 mps 745 mmHg 42%
    08:00 +13°C° 0 mm 5 mps 745 mmHg 37%
    09:00 +15°C° 0 mm 6 mps 745 mmHg 31%
    10:00 +17°C° 0 mm 6 mps 745 mmHg 25%
    11:00 +17°C° 0 mm 7 mps 744 mmHg 24%
    12:00 +18°C° 0 mm 7 mps 744 mmHg 23%
    13:00 +18°C° 0 mm 7 mps 744 mmHg 21%
    14:00 +18°C° 0 mm 7 mps 744 mmHg 23%
    15:00 +17°C° 0 mm 7 mps 744 mmHg 24%
    16:00 +17°C° 0 mm 7 mps 744 mmHg 25%
    17:00 +15°C° 0 mm 6 mps 745 mmHg 30%
    18:00 +13°C° 0 mm 5 mps 745 mmHg 34%
    19:00 +11°C° 0 mm 4 mps 746 mmHg 38%
    20:00 +11°C° 0 mm 4 mps 746 mmHg 40%
    21:00 +10°C° 0 mm 3 mps 746 mmHg 42%
    22:00 +9°C° 0 mm 3 mps 746 mmHg 44%
    23:00 +9°C° 0 mm 3 mps 746 mmHg 45%

    27 September, Thursday

    Time Temperature Precipitation Wind Pressure Humidity
    00:00 +8°C° 0 mm 3 mps 746 mmHg 46%
    01:00 +8°C° 0 mm 3 mps 746 mmHg 47%
    02:00 +8°C° 0 mm 3 mps 745 mmHg 48%
    03:00 +8°C° 0 mm 3 mps 745 mmHg 49%
    04:00 +7°C° 0 mm 3 mps 744 mmHg 49%
    05:00 +8°C° 0 mm 3 mps 744 mmHg 47%
    06:00 +10°C° 0 mm 3 mps 744 mmHg 44%
    07:00 +11°C° 0 mm 3 mps 744 mmHg 41%
    08:00 +13°C° 0 mm 3 mps 743 mmHg 34%
    09:00 +17°C° 0 mm 3 mps 743 mmHg 27%
    10:00 +20°C° 0 mm 3 mps 742 mmHg 20%
    11:00 +21°C° 0 mm 4 mps 742 mmHg 19%
    12:00 +22°C° 0 mm 4 mps 741 mmHg 17%
    13:00 +23°C° 0 mm 5 mps 740 mmHg 15%
    14:00 +23°C° 0 mm 5 mps 739 mmHg 17%
    15:00 +23°C° 0 mm 5 mps 739 mmHg 18%
    16:00 +23°C° 0 mm 5 mps 738 mmHg 19%
    17:00 +20°C° 0 mm 4 mps 738 mmHg 23%
    18:00 +18°C° 0 mm 4 mps 738 mmHg 27%
    19:00 +14°C° 0 mm 3 mps 738 mmHg 31%
    20:00 +14°C° 0 mm 3 mps 738 mmHg 32%
    21:00 +13°C° 0 mm 3 mps 738 mmHg 34%
    22:00 +13°C° 0 mm 3 mps 738 mmHg 35%
    23:00 +12°C° 0 mm 3 mps 738 mmHg 36%
    Show more